Hillsdale, MI

11:55 AM EDT on June 28, 2017 (GMT -0400)
Hillsdale Municipal

Weather History for KJYM - October, 2013

Change the Weather History Date:

Saturday, October 19, 2013

  Actual Average Record
Temperature  
Mean Temperature 46 °F -  
Max Temperature 50 °F 56 °F 84 °F (1953)
Min Temperature 41 °F 35 °F 16 °F (1972)
Degree Days  
Heating Degree Days 20    
Moisture  
Dew Point 38 °F    
Average Humidity 82    
Maximum Humidity 100    
Minimum Humidity 48    
Precipitation  
Precipitation 0.00 in - - ()
Sea Level Pressure  
Sea Level Pressure 29.82 in    
Wind  
Wind Speed 5 mph (WSW)    
Max Wind Speed 13 mph    
Max Gust Speed 21 mph    
Visibility 9 miles    
Events Rain    
Averages and records for this station are not official NWS values.
T = Trace of Precipitation, MM = Missing Value Source: NWS Daily Summary

Daily Weather History Graph

Daily Weather History Graph

Search for Another Location

Airport or City:

Trip Planner

Search our weather history database for the weather conditions in past years. The results will help you decide how hot, cold, wet, or windy it might be!

Date:

Astronomy

Oct. 19, 2013 Rise Set
Actual Time 7:55 AM EDT 6:50 PM EDT
Civil Twilight 7:27 AM EDT 7:18 PM EDT
Nautical Twilight 6:54 AM EDT 7:50 PM EDT
Astronomical Twilight 6:22 AM EDT 8:23 PM EDT
Moon 7:16 PM EDT (10/19) 8:33 AM EDT (10/19)
Length of Visible Light 11h 51m
Length of Day
10h 54m
Waxing Gibbous, 99% of the Moon is Illuminated
Oct 19
Waxing Gibbous
Oct 26
Last Quarter
Nov 3
New
Nov 10
First Quarter
Nov 17
Full

Hourly Weather History & Observations

Time (EDT) Temp. Windchill Dew Point Humidity Pressure Visibility Wind Dir Wind Speed Gust Speed Precip Events Conditions
2:35 AM 42.8 °F 41.1 °F 39.2 °F 87% 29.89 in 10.0 mi SW 3.5 mph - N/A   Scattered Clouds
2:55 AM 42.8 °F 41.1 °F 39.2 °F 87% 29.89 in 10.0 mi WSW 3.5 mph - N/A   Clear
3:15 AM 42.8 °F - 39.2 °F 87% 29.88 in 10.0 mi West 1.2 mph - N/A   Clear
3:35 AM 42.8 °F - 39.2 °F 87% 29.87 in 10.0 mi WSW 1.2 mph - N/A   Scattered Clouds
3:55 AM 42.8 °F 41.1 °F 39.2 °F 87% 29.88 in 10.0 mi WSW 3.5 mph - N/A   Overcast
4:15 AM 42.8 °F - 39.2 °F 87% 29.86 in 10.0 mi West 2.3 mph - N/A   Overcast
4:35 AM 42.8 °F 41.1 °F 41.0 °F 93% 29.86 in 10.0 mi South 3.5 mph - N/A   Overcast
4:55 AM 42.8 °F - 39.2 °F 87% 29.86 in 10.0 mi SSW 2.3 mph - N/A   Overcast
5:15 AM 42.8 °F - 39.2 °F 87% 29.85 in 10.0 mi South 2.3 mph - N/A   Overcast
5:35 AM 42.8 °F 41.1 °F 41.0 °F 93% 29.85 in 7.0 mi SSW 3.5 mph - N/A   Overcast
5:55 AM 42.8 °F - 41.0 °F 93% 29.85 in 7.0 mi SSW 2.3 mph - N/A   Overcast
6:15 AM 42.8 °F 40.1 °F 41.0 °F 93% 29.85 in 5.0 mi SSW 4.6 mph - N/A   Overcast
6:35 AM 42.8 °F - 42.8 °F 100% 29.84 in 4.0 mi SSW 2.3 mph - N/A   Overcast
6:55 AM 42.8 °F 41.1 °F 42.8 °F 100% 29.83 in 5.0 mi SW 3.5 mph - N/A   Overcast
7:15 AM 42.8 °F 41.1 °F 42.8 °F 100% 29.83 in 4.0 mi WSW 3.5 mph - N/A   Overcast
7:35 AM 42.8 °F 41.1 °F 42.8 °F 100% 29.83 in 4.0 mi WSW 3.5 mph - N/A   Overcast
7:55 AM 42.8 °F 40.1 °F 42.8 °F 100% 29.83 in 5.0 mi SW 4.6 mph - N/A   Overcast
8:15 AM 42.6 °F 40.9 °F 42.3 °F 99% 29.83 in 5.0 mi SW 3.5 mph - N/A Rain Light Rain
8:35 AM 42.8 °F 40.1 °F 42.4 °F 99% 29.83 in 4.0 mi WSW 4.6 mph - N/A Rain Light Rain
8:55 AM 42.6 °F 39.0 °F 42.3 °F 99% 29.84 in 5.0 mi WSW 5.8 mph - N/A Rain Light Rain
9:55 AM 43.0 °F 38.8 °F 42.3 °F 97% 29.82 in 7.0 mi West 6.9 mph - N/A   Drizzle
10:14 AM 42.6 °F 38.4 °F 42.1 °F 98% 29.82 in 7.0 mi WSW 6.9 mph - N/A Rain Light Rain
10:35 AM 43.0 °F 38.8 °F 42.1 °F 97% 29.82 in 10.0 mi West 6.9 mph - N/A   Light Drizzle
10:54 AM 43.0 °F 40.3 °F 41.9 °F 96% 29.81 in 10.0 mi WSW 4.6 mph - N/A   Light Drizzle
11:14 AM 43.3 °F 40.7 °F 42.4 °F 97% 29.81 in 10.0 mi WSW 4.6 mph - N/A   Mostly Cloudy
11:35 AM 43.3 °F 39.9 °F 42.1 °F 95% 29.82 in 10.0 mi WSW 5.8 mph - N/A   Mostly Cloudy
11:54 AM 43.3 °F 38.6 °F 41.7 °F 94% 29.81 in 10.0 mi WSW 8.1 mph - N/A   Light Drizzle
12:15 PM 43.3 °F 39.2 °F 42.1 °F 95% 29.81 in 7.0 mi WSW 6.9 mph - N/A   Light Drizzle
12:35 PM 43.3 °F 38.6 °F 42.1 °F 95% 29.80 in 7.0 mi West 8.1 mph - N/A   Light Drizzle
12:54 PM 44.1 °F 38.6 °F 42.3 °F 93% 29.80 in 7.0 mi West 10.4 mph 17.3 mph N/A   Light Drizzle
1:15 PM 44.1 °F 40.1 °F 41.9 °F 92% 29.80 in 10.0 mi West 6.9 mph - N/A   Overcast
1:35 PM 44.6 °F 39.2 °F 41.7 °F 90% 29.79 in 10.0 mi West 10.4 mph 16.1 mph N/A   Overcast
1:54 PM 45.1 °F 39.9 °F 41.7 °F 88% 29.79 in 10.0 mi West 10.4 mph - N/A   Overcast
2:15 PM 45.3 °F 40.6 °F 41.7 °F 87% 29.78 in 10.0 mi West 9.2 mph 17.3 mph N/A   Overcast
2:34 PM 45.9 °F 41.2 °F 41.7 °F 85% 29.78 in 10.0 mi West 9.2 mph - N/A   Overcast
2:54 PM 45.9 °F 40.8 °F 40.6 °F 82% 29.78 in 10.0 mi West 10.4 mph 17.3 mph N/A   Overcast
3:15 PM 46.0 °F 43.1 °F 40.6 °F 81% 29.78 in 10.0 mi West 5.8 mph - N/A   Overcast
3:34 PM 46.8 °F - 39.7 °F 77% 29.78 in 10.0 mi West 9.2 mph - N/A   Overcast
3:54 PM 45.3 °F 40.6 °F 40.5 °F 83% 29.78 in 7.0 mi West 9.2 mph 18.4 mph N/A Rain Light Rain
4:15 PM 46.2 °F 40.5 °F 35.4 °F 66% 29.78 in 10.0 mi West 12.7 mph 20.7 mph N/A   Overcast
4:34 PM 47.8 °F - 32.7 °F 56% 29.78 in 10.0 mi West 8.1 mph - N/A   Overcast
4:54 PM 49.3 °F - 34.5 °F 57% 29.78 in 10.0 mi WSW 8.1 mph - N/A   Scattered Clouds
5:14 PM 49.8 °F - 35.4 °F 58% 29.78 in 10.0 mi West 6.9 mph 16.1 mph N/A   Clear
5:34 PM 50.2 °F - 35.4 °F 57% 29.78 in 10.0 mi West 9.2 mph - N/A   Clear
5:55 PM 50.0 °F - 32.2 °F 50% 29.78 in 10.0 mi West 6.9 mph - N/A   Clear
6:14 PM 49.1 °F - 30.0 °F 48% 29.79 in 10.0 mi WSW 5.8 mph - N/A   Scattered Clouds
6:35 PM 47.5 °F - 30.2 °F 51% 29.79 in 10.0 mi WSW 3.5 mph - N/A   Scattered Clouds
6:55 PM 46.6 °F - 31.1 °F 55% 29.80 in 10.0 mi WSW 8.1 mph - N/A   Mostly Cloudy
7:14 PM 46.8 °F - 31.6 °F 56% 29.81 in 10.0 mi WSW 4.6 mph - N/A   Overcast
7:35 PM 45.9 °F 43.6 °F 32.2 °F 59% 29.81 in 10.0 mi SW 4.6 mph - N/A   Mostly Cloudy
7:55 PM 45.7 °F 42.7 °F 33.3 °F 62% 29.82 in 10.0 mi WSW 5.8 mph - N/A   Scattered Clouds
8:14 PM 45.3 °F 42.3 °F 33.3 °F 63% 29.83 in 10.0 mi WSW 5.8 mph - N/A   Mostly Cloudy
8:35 PM 45.0 °F 42.6 °F 33.4 °F 64% 29.83 in 10.0 mi WSW 4.6 mph - N/A   Overcast
8:54 PM 43.3 °F 41.7 °F 33.8 °F 69% 29.83 in 10.0 mi WSW 3.5 mph - N/A   Mostly Cloudy
9:14 PM 42.6 °F 39.9 °F 34.0 °F 71% 29.83 in 10.0 mi WSW 4.6 mph - N/A   Scattered Clouds
9:35 PM 42.3 °F 39.4 °F 34.9 °F 75% 29.83 in 10.0 mi SW 4.6 mph - N/A   Clear
9:54 PM 41.4 °F 39.4 °F 35.2 °F 79% 29.83 in 10.0 mi SSW 3.5 mph - N/A   Clear
10:14 PM 41.4 °F 38.4 °F 35.2 °F 79% 29.83 in 10.0 mi SW 4.6 mph - N/A   Clear
10:35 PM 41.7 °F 39.8 °F 35.2 °F 78% 29.84 in 10.0 mi SSW 3.5 mph - N/A   Clear
10:54 PM 41.7 °F 38.8 °F 35.2 °F 78% 29.84 in 10.0 mi SW 4.6 mph - N/A   Scattered Clouds
11:14 PM 42.1 °F - 35.6 °F 78% 29.85 in 10.0 mi Calm Calm - N/A   Mostly Cloudy
11:35 PM 41.4 °F - 36.0 °F 81% 29.85 in 10.0 mi Calm Calm - N/A   Overcast
11:54 PM 41.7 °F 39.8 °F 36.3 °F 81% 29.85 in 10.0 mi SW 3.5 mph - N/A   Overcast